Time,TemperatureF,DewpointF,PressureIn,WindDirection,WindDirectionDegrees,WindSpeedMPH,WindSpeedGustMPH,Humidity,HourlyPrecipIn,Conditions,Clouds,dailyrainin,SoftwareType,DateUTC
2013-01-21 00:04:00,57.0,23.0,-100.00,West,265,1.0,6.0,27,-99.99,,,-99.99,,2013-01-21 05:04:00,
2013-01-21 00:13:00,57.0,23.0,-100.00,West,275,2.0,6.0,27,-99.99,,,-99.99,,2013-01-21 05:13:00,
2013-01-21 00:22:00,56.0,23.0,-100.00,WNW,285,4.0,6.0,27,-99.99,,,-99.99,,2013-01-21 05:22:00,
2013-01-21 00:34:00,56.0,23.0,-100.00,West,280,2.0,6.0,27,-99.99,,,-99.99,,2013-01-21 05:34:00,
2013-01-21 00:42:00,57.0,23.0,-100.00,West,280,1.0,6.0,27,-99.99,,,-99.99,,2013-01-21 05:42:00,
2013-01-21 00:52:00,57.0,22.0,-100.00,WNW,290,1.0,6.0,26,-99.99,,,-99.99,,2013-01-21 05:52:00,
2013-01-21 01:03:00,57.0,22.0,-100.00,WNW,290,1.0,6.0,26,-99.99,,,-99.99,,2013-01-21 06:03:00,
2013-01-21 01:13:00,56.0,23.0,-100.00,West,275,1.0,5.0,27,-99.99,,,-99.99,,2013-01-21 06:13:00,
2013-01-21 01:23:00,56.0,22.0,-100.00,WNW,290,2.0,5.0,27,-99.99,,,-99.99,,2013-01-21 06:23:00,
2013-01-21 01:33:00,56.0,22.0,-100.00,NW,305,3.0,6.0,27,-99.99,,,-99.99,,2013-01-21 06:33:00,
2013-01-21 01:43:00,56.0,23.0,-100.00,West,275,3.0,6.0,28,-99.99,,,-99.99,,2013-01-21 06:43:00,
2013-01-21 01:52:00,56.0,24.0,-100.00,WNW,295,2.0,6.0,29,-99.99,,,-99.99,,2013-01-21 06:52:00,
2013-01-21 02:03:00,56.0,24.0,-100.00,WNW,300,1.0,6.0,29,-99.99,,,-99.99,,2013-01-21 07:03:00,
2013-01-21 02:13:00,56.0,25.0,-100.00,NW,305,2.0,7.0,30,-99.99,,,-99.99,,2013-01-21 07:13:00,
2013-01-21 02:23:00,55.0,24.0,-100.00,WNW,290,2.0,6.0,30,-99.99,,,-99.99,,2013-01-21 07:23:00,
2013-01-21 02:33:00,54.0,24.0,-100.00,NW,305,1.0,6.0,31,-99.99,,,-99.99,,2013-01-21 07:33:00,
2013-01-21 02:42:00,54.0,24.0,-100.00,West,280,1.0,5.0,31,-99.99,,,-99.99,,2013-01-21 07:42:00,
2013-01-21 02:52:00,54.0,25.0,-100.00,WNW,300,1.0,5.0,32,-99.99,,,-99.99,,2013-01-21 07:52:00,
2013-01-21 03:03:00,54.0,25.0,-100.00,WNW,300,1.0,6.0,32,-99.99,,,-99.99,,2013-01-21 08:03:00,
2013-01-21 03:14:00,54.0,25.0,-100.00,West,280,1.0,5.0,33,-99.99,,,-99.99,,2013-01-21 08:14:00,
2013-01-21 03:23:00,53.0,25.0,-100.00,WNW,285,1.0,4.0,33,-99.99,,,-99.99,,2013-01-21 08:23:00,
2013-01-21 03:33:00,53.0,25.0,-100.00,WNW,290,4.0,7.0,33,-99.99,,,-99.99,,2013-01-21 08:33:00,
2013-01-21 03:42:00,54.0,26.0,-100.00,WNW,285,2.0,6.0,34,-99.99,,,-99.99,,2013-01-21 08:42:00,
2013-01-21 03:53:00,54.0,26.0,-100.00,WNW,285,2.0,6.0,34,-99.99,,,-99.99,,2013-01-21 08:53:00,
2013-01-21 04:03:00,54.0,27.0,-100.00,WNW,300,0.0,6.0,34,-99.99,,,-99.99,,2013-01-21 09:03:00,
2013-01-21 04:13:00,53.0,26.0,-100.00,West,275,1.0,5.0,35,-99.99,,,-99.99,,2013-01-21 09:13:00,
2013-01-21 04:23:00,54.0,27.0,-100.00,West,275,4.0,6.0,35,-99.99,,,-99.99,,2013-01-21 09:23:00,
2013-01-21 04:33:00,54.0,26.0,-100.00,WNW,285,4.0,6.0,34,-99.99,,,-99.99,,2013-01-21 09:33:00,
2013-01-21 04:42:00,53.0,26.0,-100.00,WNW,285,4.0,6.0,34,-99.99,,,-99.99,,2013-01-21 09:42:00,
2013-01-21 04:53:00,53.0,26.0,-100.00,WNW,285,4.0,6.0,34,-99.99,,,-99.99,,2013-01-21 09:53:00,
2013-01-21 05:03:00,52.0,26.0,-100.00,WNW,295,2.0,6.0,36,-99.99,,,-99.99,,2013-01-21 10:03:00,
2013-01-21 05:12:00,52.0,27.0,-100.00,WNW,285,4.0,6.0,37,-99.99,,,-99.99,,2013-01-21 10:12:00,
2013-01-21 05:22:00,54.0,28.0,-100.00,WNW,295,4.0,7.0,37,-99.99,,,-99.99,,2013-01-21 10:22:00,
2013-01-21 05:33:00,54.0,28.0,-100.00,WNW,300,3.0,6.0,37,-99.99,,,-99.99,,2013-01-21 10:33:00,
2013-01-21 05:43:00,53.0,27.0,-100.00,NW,305,2.0,6.0,37,-99.99,,,-99.99,,2013-01-21 10:43:00,
2013-01-21 05:52:00,52.0,26.0,-100.00,NW,305,1.0,7.0,36,-99.99,,,-99.99,,2013-01-21 10:52:00,
2013-01-21 06:03:00,51.0,25.0,-100.00,WNW,300,5.0,7.0,37,-99.99,,,-99.99,,2013-01-21 11:03:00,
2013-01-21 06:13:00,51.0,26.0,-100.00,WNW,285,4.0,7.0,38,-99.99,,,-99.99,,2013-01-21 11:13:00,
2013-01-21 06:23:00,50.0,26.0,-100.00,West,275,3.0,6.0,39,-99.99,,,-99.99,,2013-01-21 11:23:00,
2013-01-21 06:33:00,50.0,27.0,-100.00,West,265,2.0,7.0,40,-99.99,,,-99.99,,2013-01-21 11:33:00,
2013-01-21 06:43:00,50.0,27.0,-100.00,WNW,285,2.0,6.0,41,-99.99,,,-99.99,,2013-01-21 11:43:00,
2013-01-21 06:53:00,50.0,27.0,-100.00,WNW,285,2.0,6.0,41,-99.99,,,-99.99,,2013-01-21 11:53:00,
2013-01-21 07:03:00,49.0,28.0,-100.00,WNW,300,3.0,7.0,43,-99.99,,,-99.99,,2013-01-21 12:03:00,
2013-01-21 07:12:00,49.0,27.0,-100.00,WNW,300,2.0,7.0,43,-99.99,,,-99.99,,2013-01-21 12:12:00,
2013-01-21 07:22:00,48.0,27.0,-100.00,WNW,290,2.0,6.0,44,-99.99,,,-99.99,,2013-01-21 12:22:00,
2013-01-21 07:33:00,48.0,27.0,-100.00,WNW,290,2.0,6.0,44,-99.99,,,-99.99,,2013-01-21 12:33:00,
2013-01-21 07:42:00,48.0,28.0,-100.00,NW,305,5.0,7.0,46,-99.99,,,-99.99,,2013-01-21 12:42:00,
2013-01-21 07:52:00,47.0,29.0,-100.00,NW,305,6.0,7.0,48,-99.99,,,-99.99,,2013-01-21 12:52:00,
2013-01-21 08:03:00,47.0,29.0,-100.00,NW,310,6.0,7.0,49,-99.99,,,-99.99,,2013-01-21 13:03:00,
2013-01-21 08:13:00,47.0,30.0,-100.00,NW,305,6.0,9.0,50,-99.99,,,-99.99,,2013-01-21 13:13:00,
2013-01-21 08:23:00,47.0,30.0,-100.00,NW,310,6.0,10.0,51,-99.99,,,-99.99,,2013-01-21 13:23:00,
2013-01-21 08:33:00,47.0,31.0,-100.00,NW,305,4.0,9.0,53,-99.99,,,-99.99,,2013-01-21 13:33:00,
2013-01-21 08:43:00,47.0,32.0,-100.00,WNW,295,4.0,8.0,54,-99.99,,,-99.99,,2013-01-21 13:43:00,
2013-01-21 08:53:00,47.0,32.0,-100.00,NW,305,5.0,9.0,54,-99.99,,,-99.99,,2013-01-21 13:53:00,
2013-01-21 09:04:00,48.0,32.0,-100.00,NW,305,4.0,8.0,55,-99.99,,,-99.99,,2013-01-21 14:04:00,
2013-01-21 09:13:00,49.0,33.0,-100.00,NW,320,0.0,9.0,54,-99.99,,,-99.99,,2013-01-21 14:13:00,
2013-01-21 09:23:00,49.0,33.0,-100.00,West,265,0.0,8.0,53,-99.99,,,-99.99,,2013-01-21 14:23:00,
2013-01-21 09:33:00,51.0,34.0,-100.00,ESE,115,1.0,7.0,52,-99.99,,,-99.99,,2013-01-21 14:33:00,
2013-01-21 09:43:00,51.0,34.0,-100.00,NE,55,1.0,7.0,51,-99.99,,,-99.99,,2013-01-21 14:43:00,
2013-01-21 09:53:00,52.0,34.0,-100.00,SE,140,0.0,8.0,51,-99.99,,,-99.99,,2013-01-21 14:53:00,
2013-01-21 10:03:00,53.0,34.0,-100.00,SSW,210,1.0,6.0,50,-99.99,,,-99.99,,2013-01-21 15:03:00,
2013-01-21 10:13:00,53.0,34.0,-100.00,SSE,160,1.0,6.0,49,-99.99,,,-99.99,,2013-01-21 15:13:00,
2013-01-21 10:23:00,53.0,35.0,-100.00,SSW,195,2.0,6.0,50,-99.99,,,-99.99,,2013-01-21 15:23:00,
2013-01-21 10:33:00,54.0,37.0,-100.00,SSW,200,2.0,6.0,52,-99.99,,,-99.99,,2013-01-21 15:33:00,
2013-01-21 10:43:00,55.0,37.0,-100.00,SSW,195,2.0,6.0,50,-99.99,,,-99.99,,2013-01-21 15:43:00,
2013-01-21 10:53:00,56.0,37.0,-100.00,SSW,195,4.0,7.0,49,-99.99,,,-99.99,,2013-01-21 15:53:00,
2013-01-21 11:04:00,56.0,36.0,-100.00,SSW,200,4.0,6.0,47,-99.99,,,-99.99,,2013-01-21 16:04:00,
2013-01-21 11:13:00,57.0,37.0,-100.00,SSW,200,4.0,7.0,46,-99.99,,,-99.99,,2013-01-21 16:13:00,
2013-01-21 11:23:00,58.0,37.0,-100.00,SW,235,4.0,6.0,45,-99.99,,,-99.99,,2013-01-21 16:23:00,
2013-01-21 11:33:00,60.0,37.0,-100.00,WSW,250,2.0,6.0,42,-99.99,,,-99.99,,2013-01-21 16:33:00,
2013-01-21 11:43:00,61.0,36.0,-100.00,WSW,240,2.0,6.0,39,-99.99,,,-99.99,,2013-01-21 16:43:00,
2013-01-21 11:53:00,61.0,36.0,-100.00,WSW,250,1.0,6.0,39,-99.99,,,-99.99,,2013-01-21 16:53:00,
2013-01-21 12:03:00,62.0,36.0,-100.00,SW,235,1.0,6.0,38,-99.99,,,-99.99,,2013-01-21 17:03:00,
2013-01-21 12:13:00,63.0,36.0,-100.00,WSW,255,1.0,9.0,37,-99.99,,,-99.99,,2013-01-21 17:13:00,
2013-01-21 12:23:00,63.0,35.0,-100.00,WSW,245,3.0,15.0,35,-99.99,,,-99.99,,2013-01-21 17:23:00,
2013-01-21 12:33:00,63.0,34.0,-100.00,WSW,250,1.0,20.0,33,-99.99,,,-99.99,,2013-01-21 17:33:00,
2013-01-21 12:43:00,63.0,34.0,-100.00,West,265,8.0,21.0,33,-99.99,,,-99.99,,2013-01-21 17:43:00,
2013-01-21 12:53:00,63.0,33.0,-100.00,West,270,1.0,22.0,32,-99.99,,,-99.99,,2013-01-21 17:53:00,
2013-01-21 13:03:00,64.0,34.0,-100.00,WSW,255,1.0,11.0,32,-99.99,,,-99.99,,2013-01-21 18:03:00,
2013-01-21 13:12:00,64.0,33.0,-100.00,WSW,240,4.0,13.0,31,-99.99,,,-99.99,,2013-01-21 18:12:00,
2013-01-21 13:23:00,65.0,31.0,-100.00,West,260,0.0,18.0,28,-99.99,,,-99.99,,2013-01-21 18:23:00,
2013-01-21 13:33:00,65.0,30.0,-100.00,WSW,255,19.0,26.0,27,-99.99,,,-99.99,,2013-01-21 18:33:00,
2013-01-21 13:43:00,65.0,29.0,-100.00,West,265,4.0,21.0,26,-99.99,,,-99.99,,2013-01-21 18:43:00,
2013-01-21 13:52:00,65.0,29.0,-100.00,WSW,250,3.0,21.0,26,-99.99,,,-99.99,,2013-01-21 18:52:00,
2013-01-21 14:03:00,65.0,30.0,-100.00,WSW,250,5.0,17.0,27,-99.99,,,-99.99,,2013-01-21 19:03:00,
2013-01-21 14:13:00,65.0,30.0,-100.00,West,260,1.0,17.0,26,-99.99,,,-99.99,,2013-01-21 19:13:00,
2013-01-21 14:22:00,65.0,30.0,-100.00,West,265,2.0,18.0,26,-99.99,,,-99.99,,2013-01-21 19:22:00,
2013-01-21 14:33:00,65.0,29.0,-100.00,WSW,240,5.0,21.0,26,-99.99,,,-99.99,,2013-01-21 19:33:00,
2013-01-21 14:43:00,65.0,30.0,-100.00,WSW,250,1.0,23.0,27,-99.99,,,-99.99,,2013-01-21 19:43:00,
2013-01-21 14:53:00,65.0,30.0,-100.00,West,260,5.0,18.0,27,-99.99,,,-99.99,,2013-01-21 19:53:00,
2013-01-21 15:03:00,65.0,31.0,-100.00,WSW,240,1.0,14.0,28,-99.99,,,-99.99,,2013-01-21 20:03:00,
2013-01-21 15:12:00,64.0,31.0,-100.00,WSW,240,1.0,15.0,28,-99.99,,,-99.99,,2013-01-21 20:12:00,
2013-01-21 15:23:00,64.0,30.0,-100.00,WSW,250,1.0,14.0,28,-99.99,,,-99.99,,2013-01-21 20:23:00,
2013-01-21 15:33:00,64.0,30.0,-100.00,WSW,250,1.0,14.0,28,-99.99,,,-99.99,,2013-01-21 20:33:00,
2013-01-21 15:43:00,64.0,31.0,-100.00,WSW,250,4.0,15.0,29,-99.99,,,-99.99,,2013-01-21 20:43:00,
2013-01-21 15:53:00,64.0,31.0,-100.00,WSW,250,4.0,15.0,29,-99.99,,,-99.99,,2013-01-21 20:53:00,
2013-01-21 16:04:00,64.0,31.0,-100.00,SW,220,1.0,9.0,29,-99.99,,,-99.99,,2013-01-21 21:04:00,
2013-01-21 16:12:00,64.0,31.0,-100.00,SW,235,4.0,17.0,29,-99.99,,,-99.99,,2013-01-21 21:12:00,
2013-01-21 16:23:00,64.0,31.0,-100.00,WSW,240,3.0,17.0,29,-99.99,,,-99.99,,2013-01-21 21:23:00,
2013-01-21 16:33:00,64.0,31.0,-100.00,WSW,245,0.0,14.0,29,-99.99,,,-99.99,,2013-01-21 21:33:00,
2013-01-21 16:43:00,64.0,32.0,-100.00,WSW,250,4.0,16.0,30,-99.99,,,-99.99,,2013-01-21 21:43:00,
2013-01-21 16:53:00,64.0,32.0,-100.00,WSW,250,4.0,20.0,30,-99.99,,,-99.99,,2013-01-21 21:53:00,
2013-01-21 17:03:00,64.0,32.0,-100.00,WSW,240,1.0,18.0,31,-99.99,,,-99.99,,2013-01-21 22:03:00,
2013-01-21 17:13:00,63.0,32.0,-100.00,WSW,245,4.0,18.0,31,-99.99,,,-99.99,,2013-01-21 22:13:00,
2013-01-21 17:23:00,63.0,32.0,-100.00,SW,235,1.0,15.0,31,-99.99,,,-99.99,,2013-01-21 22:23:00,
2013-01-21 17:33:00,63.0,33.0,-100.00,WSW,250,1.0,14.0,32,-99.99,,,-99.99,,2013-01-21 22:33:00,
2013-01-21 17:43:00,63.0,33.0,-100.00,WSW,255,1.0,9.0,32,-99.99,,,-99.99,,2013-01-21 22:43:00,
2013-01-21 17:52:00,63.0,33.0,-100.00,WSW,255,1.0,9.0,32,-99.99,,,-99.99,,2013-01-21 22:52:00,
2013-01-21 18:03:00,63.0,32.0,-100.00,WSW,240,1.0,6.0,32,-99.99,,,-99.99,,2013-01-21 23:03:00,
2013-01-21 18:13:00,63.0,33.0,-100.00,SW,230,1.0,6.0,33,-99.99,,,-99.99,,2013-01-21 23:13:00,
2013-01-21 18:23:00,62.0,34.0,-100.00,SW,225,2.0,6.0,35,-99.99,,,-99.99,,2013-01-21 23:23:00,
2013-01-21 18:33:00,61.0,35.0,-100.00,WSW,240,4.0,6.0,37,-99.99,,,-99.99,,2013-01-21 23:33:00,
2013-01-21 18:42:00,61.0,34.0,-100.00,WSW,240,2.0,6.0,37,-99.99,,,-99.99,,2013-01-21 23:42:00,
2013-01-21 18:53:00,60.0,34.0,-100.00,WSW,240,1.0,6.0,37,-99.99,,,-99.99,,2013-01-21 23:53:00,
2013-01-21 19:03:00,60.0,34.0,-100.00,WSW,245,2.0,6.0,37,-99.99,,,-99.99,,2013-01-22 00:03:00,
2013-01-21 19:12:00,60.0,34.0,-100.00,WSW,240,1.0,14.0,37,-99.99,,,-99.99,,2013-01-22 00:12:00,
2013-01-21 19:23:00,60.0,34.0,-100.00,WSW,245,1.0,10.0,37,-99.99,,,-99.99,,2013-01-22 00:23:00,
2013-01-21 19:33:00,60.0,34.0,-100.00,WSW,250,1.0,6.0,38,-99.99,,,-99.99,,2013-01-22 00:33:00,
2013-01-21 19:43:00,60.0,34.0,-100.00,WSW,250,1.0,11.0,38,-99.99,,,-99.99,,2013-01-22 00:43:00,
2013-01-21 19:53:00,60.0,34.0,-100.00,WSW,250,1.0,11.0,38,-99.99,,,-99.99,,2013-01-22 00:53:00,
2013-01-21 20:02:00,60.0,34.0,-100.00,WSW,255,2.0,15.0,38,-99.99,,,-99.99,,2013-01-22 01:02:00,
2013-01-21 20:12:00,59.0,34.0,-100.00,WSW,255,2.0,16.0,38,-99.99,,,-99.99,,2013-01-22 01:12:00,
2013-01-21 20:23:00,59.0,33.0,-100.00,WSW,250,1.0,16.0,38,-99.99,,,-99.99,,2013-01-22 01:23:00,
2013-01-21 20:33:00,59.0,33.0,-100.00,WSW,250,1.0,16.0,38,-99.99,,,-99.99,,2013-01-22 01:33:00,
2013-01-21 20:43:00,59.0,33.0,-100.00,West,260,2.0,19.0,38,-99.99,,,-99.99,,2013-01-22 01:43:00,
2013-01-21 20:52:00,59.0,33.0,-100.00,West,260,2.0,19.0,38,-99.99,,,-99.99,,2013-01-22 01:52:00,
2013-01-21 21:03:00,58.0,33.0,-100.00,WSW,255,1.0,18.0,38,-99.99,,,-99.99,,2013-01-22 02:03:00,
2013-01-21 21:12:00,58.0,33.0,-100.00,West,270,2.0,16.0,39,-99.99,,,-99.99,,2013-01-22 02:12:00,
2013-01-21 21:23:00,58.0,33.0,-100.00,West,260,1.0,14.0,39,-99.99,,,-99.99,,2013-01-22 02:23:00,
2013-01-21 21:33:00,57.0,33.0,-100.00,West,270,1.0,14.0,39,-99.99,,,-99.99,,2013-01-22 02:33:00,
2013-01-21 21:43:00,57.0,32.0,-100.00,West,265,1.0,7.0,39,-99.99,,,-99.99,,2013-01-22 02:43:00,
2013-01-21 21:53:00,57.0,32.0,-100.00,West,265,2.0,14.0,39,-99.99,,,-99.99,,2013-01-22 02:53:00,
2013-01-21 22:03:00,57.0,32.0,-100.00,West,275,2.0,16.0,39,-99.99,,,-99.99,,2013-01-22 03:03:00,
2013-01-21 22:12:00,57.0,32.0,-100.00,West,270,1.0,17.0,38,-99.99,,,-99.99,,2013-01-22 03:12:00,
2013-01-21 22:22:00,56.0,31.0,-100.00,West,265,1.0,17.0,38,-99.99,,,-99.99,,2013-01-22 03:22:00,
2013-01-21 22:33:00,56.0,31.0,-100.00,West,265,4.0,15.0,38,-99.99,,,-99.99,,2013-01-22 03:33:00,
2013-01-21 22:42:00,56.0,31.0,-100.00,West,275,9.0,21.0,38,-99.99,,,-99.99,,2013-01-22 03:42:00,
2013-01-21 22:52:00,56.0,31.0,-100.00,West,275,9.0,21.0,38,-99.99,,,-99.99,,2013-01-22 03:52:00,
2013-01-21 23:03:00,56.0,31.0,-100.00,West,275,6.0,20.0,38,-99.99,,,-99.99,,2013-01-22 04:03:00,
2013-01-21 23:12:00,56.0,31.0,-100.00,West,270,1.0,21.0,38,-99.99,,,-99.99,,2013-01-22 04:12:00,
2013-01-21 23:22:00,56.0,30.0,-100.00,West,270,1.0,7.0,38,-99.99,,,-99.99,,2013-01-22 04:22:00,
2013-01-21 23:33:00,56.0,30.0,-100.00,West,270,1.0,9.0,38,-99.99,,,-99.99,,2013-01-22 04:33:00,
2013-01-21 23:42:00,55.0,30.0,-100.00,West,270,2.0,7.0,38,-99.99,,,-99.99,,2013-01-22 04:42:00,
2013-01-21 23:52:00,55.0,30.0,-100.00,West,275,2.0,18.0,39,-99.99,,,-99.99,,2013-01-22 04:52:00,